Location: Aldenham
(51.6667°N, 0.3500°W)
Time: 03:45:11
(UTC+00:00)

Altair - Pass Details

Date: 20 February 2026
Orbit: 1502 x 1682 km, 47.2° (Epoch: 7 March)

Event Time Altitude Azimuth Distance (km) Brightness Sun altitude
Rises 04:09:44 0° 224° (SW) 4,626 - -27.7°
Reaches altitude 10° 04:12:54 10° 218° (SW) 3,651 - -27.3°
Exits shadow 04:17:01 28° 201° (SSW) 2,541 8.3 -26.7°
Maximum altitude 04:21:23 44° 150° (SSE) 1,997 8.1 -26.0°
Drops below altitude 10° 04:30:06 10° 82° (E) 3,746 10.6 -24.7°
Sets 04:33:22 0° 77° (ENE) 4,756 11.5 -24.2°
